Regional Weather Roundup
Issued by NWS Sioux Falls, SD

Home | Current Version | Previous Version | Text Only | Print | Product List | Glossary Off
Versions: 1 2 3 4 5 6 7 8 9 10 11 12 13 14 15 16 17 18 19 20 21 22 23 24 25 26 27 28 29 30 31 32 33 34 35 36 37 38 39 40 41 42 43 44 45 46 47 48 49 50

000
ASUS43 KFSD 282110
RWRFSD

WEATHER ROUNDUP FOR SE SOUTH DAKOTA/SW MINNESOTA/NW IOWA
NATIONAL WEATHER SERVICE SIOUX FALLS SD
400 PM CDT TUE MAR 28 2017

NOTE: "FAIR" INDICATES FEW OR NO CLOUDS BELOW 12,000 FEET WITH NO
SIGNIFICANT WEATHER AND OR OBSTRUCTIONS TO VISIBILITY.


SDZ038>040-050-052>070-282200-
SOUTHEAST SOUTH DAKOTA

CITY           SKY/WX    TMP DP  RH WIND       PRES   REMARKS
BROOKINGS      MOSUNNY   58  36  43 E10G17      N/A
CHAMBERLAIN    CLOUDY    60  38  44 E9        30.06S
HURON          SUNNY     60  38  43 VRB6      30.08F
MADISON        MOCLDY    57  37  47 E12G17    30.09S
MITCHELL       MOSUNNY   61  36  39 E6G17     30.08F
SIOUX FALLS    CLOUDY    61  36  39 E14       30.08S
WINNER         LGT RAIN  51  46  83 SW7       30.07S
YANKTON        MOSUNNY   57  39  51 E8G16     30.06F
$$

MNZ071-072-080-081-089-090-097-098-282200-
SOUTHWEST MINNESOTA

CITY           SKY/WX    TMP DP  RH WIND       PRES   REMARKS
FAIRMONT       SUNNY     58  38  47 E13       30.10F
JACKSON          N/A     59  36  41 E16       30.10F
LUVERNE        MOSUNNY   57  34  41 E9        30.10R
MARSHALL       MOSUNNY   59  36  42 E8        30.10F
MONTEVIDEO     PTSUNNY   63  36  36 SE8       30.12F
PIPESTONE      MOSUNNY   61  30  31 E9        30.09S
REDWOOD FALLS  MOSUNNY   62  33  33 E12       30.10F
TRACY          MOSUNNY   61  39  43 E9        30.10F
WINDOM         SUNNY     61  34  36 E14       30.10F
WORTHINGTON    MOSUNNY   58  37  45 E16       30.10F
$$

IAZ001>003-012>014-020>022-031-032-NEZ013-014-SDZ071-282200-
NORTHWEST IOWA

CITY           SKY/WX    TMP DP  RH WIND       PRES   REMARKS
CHEROKEE       SUNNY     60  37  42 E10G16    30.08F
DENISON        CLOUDY    52  43  71 E13       30.09F
ESTHERVILLE    SUNNY     57  38  48 E18G24    30.09F
LE MARS        SUNNY     63  34  34 NE13G20   30.07F
ORANGE CITY    CLOUDY    61  36  39 E9        30.08F
SHELDON        MOSUNNY   59  37  44 E15       30.07S
SIOUX CITY     SUNNY     63  37  38 E16       30.04F
SPENCER        SUNNY     60  35  39 E14       30.10S
STORM LAKE     MOSUNNY   57  39  51 E15       30.08S
$$

ABBREVIATIONS USED IN REMARKS
   TC - TEMPERATURE IN CELSIUS
  WCI - WIND CHILL INDEX
   HX - HEAT INDEX
  VSB - VISIBILITY




USA.gov is the U.S. government's official web portal to all federal, state and local government web resources and services.